LIC0053 KATL-KMSY

Flight info

Callsign LIC0053
Flight time N/A
Altitude 36000
Route POUNC2 GRGIA ARNNY SJI MNSTR1
Aircraft B737/M-SDE2E3FGHIRWXY/LB1

Departure

Time N/A
Airport Hartsfield Jackson Atlanta International Airport (KATL)

Arrival

Time 2026-05-01 07:55
Airport Louis Armstrong New Orleans International Airport (KMSY)
Time Latitude Longitude Altitude Speed Heading
2026-05-01 07:23 30.88372 -88.22823 36945 ft 408 kts 226°
2026-05-01 07:24 30.81451 -88.28569 36950 ft 410 kts 226°
2026-05-01 07:24 30.76808 -88.32415 36953 ft 408 kts 226°
2026-05-01 07:24 30.74599 -88.34460 36948 ft 396 kts 232°
2026-05-01 07:25 30.72727 -88.36697 36413 ft 387 kts 239°
2026-05-01 07:25 30.71182 -88.39259 35084 ft 389 kts 246°
2026-05-01 07:25 30.69902 -88.41979 34197 ft 386 kts 249°
2026-05-01 07:25 30.68686 -88.44717 33780 ft 377 kts 249°
2026-05-01 07:26 30.67504 -88.47396 33092 ft 374 kts 249°
2026-05-01 07:26 30.66327 -88.50064 32491 ft 371 kts 249°
2026-05-01 07:26 30.65156 -88.52723 31857 ft 368 kts 249°
2026-05-01 07:26 30.64006 -88.55328 31252 ft 366 kts 248°
2026-05-01 07:27 30.62846 -88.57948 30752 ft 360 kts 248°
2026-05-01 07:27 30.61713 -88.60502 30210 ft 355 kts 248°
2026-05-01 07:27 30.60598 -88.63017 29648 ft 352 kts 248°
2026-05-01 07:27 30.59487 -88.65521 28990 ft 351 kts 247°
2026-05-01 07:28 30.58371 -88.68040 28351 ft 351 kts 247°
2026-05-01 07:28 30.57269 -88.70518 27933 ft 345 kts 247°
2026-05-01 07:28 30.56167 -88.72997 27258 ft 346 kts 247°
2026-05-01 07:28 30.55077 -88.75449 26659 ft 345 kts 246°
2026-05-01 07:29 30.53988 -88.77893 26194 ft 340 kts 246°
2026-05-01 07:29 30.52905 -88.80325 25637 ft 338 kts 246°
2026-05-01 07:29 30.51837 -88.82719 25065 ft 338 kts 246°
2026-05-01 07:29 30.50759 -88.85137 24539 ft 335 kts 246°
2026-05-01 07:30 30.49703 -88.87502 23980 ft 334 kts 246°
2026-05-01 07:30 30.48632 -88.89898 23416 ft 333 kts 246°
2026-05-01 07:30 30.47569 -88.92275 22935 ft 330 kts 246°
2026-05-01 07:30 30.46524 -88.94609 22435 ft 328 kts 246°
2026-05-01 07:31 30.45492 -88.96915 21975 ft 324 kts 246°
2026-05-01 07:31 30.42428 -89.03754 20552 ft 317 kts 246°
2026-05-01 07:32 30.40444 -89.08213 19709 ft 308 kts 249°
2026-05-01 07:32 30.39581 -89.10471 19182 ft 306 kts 251°
2026-05-01 07:33 30.37966 -89.14970 18245 ft 301 kts 251°
2026-05-01 07:33 30.37156 -89.17197 17778 ft 298 kts 251°
2026-05-01 07:33 30.35553 -89.21560 16867 ft 293 kts 250°
2026-05-01 07:34 30.34757 -89.23717 16313 ft 294 kts 250°
2026-05-01 07:34 30.33152 -89.28046 15295 ft 292 kts 249°
2026-05-01 07:34 30.32348 -89.30180 14861 ft 288 kts 250°
2026-05-01 07:35 30.31562 -89.32294 14364 ft 287 kts 250°
2026-05-01 07:35 30.30800 -89.34417 13838 ft 288 kts 250°
2026-05-01 07:35 30.30013 -89.36556 13307 ft 288 kts 249°
2026-05-01 07:35 30.29222 -89.38679 12793 ft 288 kts 249°
2026-05-01 07:36 30.28436 -89.40791 12330 ft 286 kts 249°
2026-05-01 07:36 30.27660 -89.42879 11843 ft 286 kts 249°
2026-05-01 07:36 30.26868 -89.45009 11315 ft 287 kts 249°
2026-05-01 07:36 30.26095 -89.47089 11099 ft 280 kts 249°
2026-05-01 07:37 30.24549 -89.51241 11075 ft 287 kts 249°
2026-05-01 07:37 30.23753 -89.53380 11072 ft 288 kts 248°
2026-05-01 07:37 30.22959 -89.55508 11075 ft 286 kts 248°
2026-05-01 07:38 30.22166 -89.57629 11066 ft 286 kts 248°
2026-05-01 07:38 30.21376 -89.59747 11070 ft 288 kts 248°
2026-05-01 07:38 30.19802 -89.63963 11071 ft 287 kts 248°
2026-05-01 07:39 30.19009 -89.66085 11069 ft 287 kts 248°
2026-05-01 07:39 30.18221 -89.68192 11073 ft 284 kts 248°
2026-05-01 07:39 30.16637 -89.72422 11078 ft 288 kts 248°
2026-05-01 07:40 30.15869 -89.74532 11074 ft 287 kts 252°
2026-05-01 07:40 30.15641 -89.76812 11073 ft 285 kts 273°
2026-05-01 07:40 30.15839 -89.79079 11073 ft 287 kts 273°
2026-05-01 07:40 30.15913 -89.81368 11074 ft 285 kts 269°
2026-05-01 07:41 30.15885 -89.83637 11076 ft 286 kts 268°
2026-05-01 07:41 30.15770 -89.85955 11072 ft 286 kts 265°
2026-05-01 07:41 30.15406 -89.90510 11061 ft 286 kts 265°
2026-05-01 07:42 30.15240 -89.92788 11066 ft 284 kts 265°
2026-05-01 07:42 30.15078 -89.95076 11072 ft 286 kts 265°
2026-05-01 07:42 30.14918 -89.97369 11067 ft 285 kts 265°
2026-05-01 07:42 30.14758 -89.99641 11073 ft 287 kts 265°
2026-05-01 07:43 30.14597 -90.01948 11073 ft 286 kts 265°
2026-05-01 07:43 30.14437 -90.04222 11075 ft 284 kts 265°
2026-05-01 07:43 30.14116 -90.08777 11075 ft 286 kts 265°
2026-05-01 07:44 30.13800 -90.13251 11087 ft 265 kts 265°
2026-05-01 07:44 30.13503 -90.17419 10404 ft 261 kts 265°
2026-05-01 07:45 30.13355 -90.19492 10021 ft 260 kts 265°
2026-05-01 07:45 30.13205 -90.21587 9555 ft 263 kts 265°
2026-05-01 07:45 30.13055 -90.23682 9222 ft 260 kts 264°
2026-05-01 07:45 30.12907 -90.25752 8866 ft 258 kts 265°
2026-05-01 07:46 30.12675 -90.27797 8474 ft 258 kts 255°
2026-05-01 07:46 30.12093 -90.29738 8117 ft 257 kts 249°
2026-05-01 07:46 30.10889 -90.33630 7332 ft 256 kts 252°
2026-05-01 07:47 30.10337 -90.35563 6915 ft 258 kts 252°
2026-05-01 07:47 30.09781 -90.37523 6587 ft 255 kts 252°
2026-05-01 07:47 30.09233 -90.39465 6207 ft 256 kts 252°
2026-05-01 07:47 30.08680 -90.41433 5799 ft 257 kts 252°
2026-05-01 07:48 30.07604 -90.45245 5341 ft 238 kts 252°
2026-05-01 07:48 30.07111 -90.46996 5168 ft 227 kts 251°
2026-05-01 07:48 30.06620 -90.48692 4964 ft 221 kts 248°
2026-05-01 07:49 30.05846 -90.50206 4650 ft 221 kts 225°
2026-05-01 07:49 30.03066 -90.51524 4058 ft 222 kts 181°
2026-05-01 07:49 30.01577 -90.51136 3796 ft 220 kts 153°
2026-05-01 07:50 30.00368 -90.50121 3681 ft 209 kts 136°
2026-05-01 07:50 29.99342 -90.47260 3421 ft 189 kts 94°
2026-05-01 07:50 29.99494 -90.45785 3168 ft 188 kts 72°
2026-05-01 07:51 30.00099 -90.44477 3097 ft 177 kts 60°
2026-05-01 07:51 30.00708 -90.43267 2962 ft 170 kts 62°
2026-05-01 07:51 30.01273 -90.42127 2847 ft 161 kts 62°
2026-05-01 07:52 30.01988 -90.39909 2490 ft 134 kts 86°
2026-05-01 07:52 30.02027 -90.38855 2257 ft 129 kts 91°
2026-05-01 07:52 30.01871 -90.37851 1980 ft 126 kts 103°
2026-05-01 07:53 30.01534 -90.35912 1964 ft 123 kts 103°
2026-05-01 07:53 30.01309 -90.34983 1717 ft 122 kts 102°
2026-05-01 07:53 30.01088 -90.34009 1317 ft 129 kts 104°
2026-05-01 07:53 30.00841 -90.33012 994 ft 130 kts 102°
2026-05-01 07:54 30.00361 -90.31017 977 ft 131 kts 102°
2026-05-01 07:55 29.99551 -90.27716 48 ft 149 kts 102°
2026-05-01 07:55 29.99157 -90.26045 11 ft 34 kts 109°
2026-05-01 07:56 29.99154 -90.25630 11 ft 12 kts 14°
2026-05-01 07:56 29.99169 -90.25626 11 ft 0 kts 14°
2026-05-01 07:57 29.99170 -90.25626 11 ft 0 kts 14°
2026-05-01 07:57 29.99201 -90.25599 11 ft 4 kts 66°
2026-05-01 07:58 29.99244 -90.25545 11 ft 6 kts 12°
2026-05-01 07:58 29.99334 -90.25530 11 ft 6 kts 26°
2026-05-01 07:59 29.99360 -90.25459 11 ft 3 kts 93°
2026-05-01 07:59 29.99359 -90.25442 11 ft 0 kts 93°